^^
Datos históricos de la estación: Murcia-Puente Tocinos
Diario Informe para Mayo 19, 2019 Unidades:  Métrico    Inglés   Ambas
Diario Semanal Mensual Anual Configurable
  Máximo: Mínimo: Media:
Temperatura: 25.1 °C 14.6 °C 19.7 °C
Punto de rocio: 13.5 °C -0.2 °C 6.7 °C
Humedad: 84% 19% 48%
Velocidad viento: 20.1km/h 0.0km/h 7.6km/h
Racha viento: 35.2km/h - -
Viento- - SSW
Presión: 1010.2 hPa 1006.8 hPa -
Precipitación: 0.0 mm    
Historical Graphs
 
 
Tabla de datos para Mayo 19, 2019
Hora Temperatura Punto de rocio Presión Viento Velocidad viento Racha viento Humedad Intensidad lluvia(por hora) Nubes
00:04 16.8 °C 13.3 °C 1009.1 hPa ENE 2.9 km/h 7.4 km/h 80% 0.0 mm CLR
00:09 16.8 °C 13.5 °C 1009.1 hPa NE 3.2 km/h 3.2 km/h 81% 0.0 mm CLR
00:14 16.8 °C 13.5 °C 1009.1 hPa NNW 3.2 km/h 5.6 km/h 81% 0.0 mm CLR
00:19 16.7 °C 13.4 °C 1009.0 hPa NNW 3.2 km/h 5.8 km/h 81% 0.0 mm CLR
00:24 16.6 °C 13.3 °C 1009.0 hPa NNW 3.2 km/h 5.6 km/h 81% 0.0 mm CLR
00:29 16.5 °C 13.2 °C 1009.0 hPa NE 2.9 km/h 5.6 km/h 81% 0.0 mm CLR
00:34 16.4 °C 13.1 °C 1009.0 hPa NE 2.9 km/h 7.4 km/h 81% 0.0 mm CLR
00:39 16.3 °C 13.2 °C 1009.0 hPa NE 3.9 km/h   82% 0.0 mm CLR
00:44 16.3 °C 12.8 °C 1009.0 hPa ESE 3.9 km/h 5.6 km/h 80% 0.0 mm CLR
00:49 16.2 °C 12.7 °C 1008.8 hPa SE 3.9 km/h 5.6 km/h 80% 0.0 mm CLR
00:54 16.2 °C 12.9 °C 1008.8 hPa WNW 3.9 km/h 7.6 km/h 81% 0.0 mm CLR
00:59 16.1 °C 12.8 °C 1008.8 hPa NNW 3.9 km/h 5.6 km/h 81% 0.0 mm CLR
01:04 16.0 °C 12.9 °C 1009.1 hPa NNW 3.9 km/h 3.7 km/h 82% 0.0 mm CLR
01:09 15.9 °C 12.8 °C 1009.1 hPa NW 2.3 km/h 5.6 km/h 82% 0.0 mm CLR
01:14 15.8 °C 12.7 °C 1009.1 hPa WNW 2.3 km/h 7.4 km/h 82% 0.0 mm CLR
01:19 15.7 °C 12.8 °C 1009.0 hPa West 4.7 km/h 5.6 km/h 83% 0.0 mm CLR
01:24 15.6 °C 12.7 °C 1009.0 hPa West 4.7 km/h 6.4 km/h 83% 0.0 mm CLR
01:29 15.6 °C 12.7 °C 1009.0 hPa WNW 3.2 km/h 5.6 km/h 83% 0.0 mm CLR
01:34 15.6 °C 12.9 °C 1009.1 hPa WNW 3.2 km/h 1.9 km/h 84% 0.0 mm CLR
01:39 15.5 °C 12.8 °C 1009.1 hPa WNW 2.3 km/h   84% 0.0 mm CLR
01:44 15.6 °C 12.9 °C 1009.1 hPa SW 2.3 km/h 3.7 km/h 84% 0.0 mm CLR
01:49 15.7 °C 13.0 °C 1009.1 hPa SE 2.3 km/h 7.4 km/h 84% 0.0 mm CLR
01:54 15.7 °C 12.6 °C 1009.1 hPa South 2.3 km/h 7.4 km/h 82% 0.0 mm CLR
01:59 15.7 °C 12.4 °C 1009.1 hPa SSW 5.8 km/h 7.4 km/h 81% 0.0 mm CLR
02:04 15.6 °C 12.2 °C 1009.0 hPa SSE 5.8 km/h 7.6 km/h 80% 0.0 mm CLR
02:09 15.5 °C 12.1 °C 1009.0 hPa SSE 5.0 km/h 5.6 km/h 80% 0.0 mm CLR
02:14 15.6 °C 12.2 °C 1009.0 hPa SSE 5.0 km/h 7.4 km/h 80% 0.0 mm CLR
02:19 15.6 °C 12.2 °C 1008.9 hPa South 4.7 km/h 7.6 km/h 80% 0.0 mm CLR
02:24 15.6 °C 12.2 °C 1008.9 hPa SSE 4.7 km/h 9.3 km/h 80% 0.0 mm CLR
02:29 15.7 °C 12.3 °C 1008.9 hPa SSE 5.8 km/h 5.6 km/h 80% 0.0 mm CLR
02:34 15.7 °C 12.4 °C 1008.9 hPa SSW 5.8 km/h 7.4 km/h 81% 0.0 mm CLR
02:39 15.8 °C 12.3 °C 1008.9 hPa SSW 5.0 km/h 6.4 km/h 80% 0.0 mm CLR
02:44 15.9 °C 12.4 °C 1008.9 hPa SSW 5.0 km/h 5.6 km/h 80% 0.0 mm CLR
02:49 15.9 °C 12.4 °C 1008.9 hPa SW 3.2 km/h 3.7 km/h 80% 0.0 mm CLR
02:54 16.0 °C 12.6 °C 1008.9 hPa SW 3.2 km/h 2.9 km/h 80% 0.0 mm CLR
02:59 15.9 °C 12.3 °C 1008.9 hPa Calm     79% 0.0 mm CLR
03:04 15.9 °C 12.3 °C 1008.8 hPa Calm     79% 0.0 mm CLR
03:09 15.8 °C 12.2 °C 1008.8 hPa Calm     79% 0.0 mm CLR
03:14 15.7 °C 12.3 °C 1008.8 hPa Calm   3.7 km/h 80% 0.0 mm CLR
03:19 15.7 °C 12.4 °C 1008.7 hPa Calm   5.0 km/h 81% 0.0 mm CLR
03:24 15.6 °C 12.3 °C 1008.7 hPa Calm   5.6 km/h 81% 0.0 mm CLR
03:29 15.6 °C 12.3 °C 1008.7 hPa WSW 2.9 km/h 3.7 km/h 81% 0.0 mm CLR
03:34 15.5 °C 12.3 °C 1008.6 hPa WSW 2.9 km/h 5.8 km/h 81% 0.0 mm CLR
03:39 15.6 °C 12.3 °C 1008.6 hPa WSW 3.2 km/h 4.7 km/h 81% 0.0 mm CLR
03:44 15.6 °C 12.3 °C 1008.6 hPa WSW 3.2 km/h 7.4 km/h 81% 0.0 mm CLR
03:49 15.6 °C 12.2 °C 1008.4 hPa West 5.0 km/h 9.3 km/h 80% 0.0 mm CLR
03:54 15.6 °C 12.2 °C 1008.4 hPa West 5.0 km/h 9.3 km/h 80% 0.0 mm CLR
03:59 15.6 °C 12.2 °C 1008.4 hPa WSW 6.4 km/h 7.4 km/h 80% 0.0 mm CLR
04:04 15.6 °C 12.2 °C 1008.3 hPa SW 6.4 km/h 5.6 km/h 80% 0.0 mm CLR
04:09 15.6 °C 11.9 °C 1008.3 hPa South 3.9 km/h 5.6 km/h 79% 0.0 mm CLR
04:14 15.4 °C 11.8 °C 1008.3 hPa SW 3.9 km/h 5.6 km/h 79% 0.0 mm CLR
04:19 15.4 °C 11.9 °C 1008.1 hPa SW 3.9 km/h 5.6 km/h 80% 0.0 mm CLR
04:24 15.4 °C 11.9 °C 1008.1 hPa South 3.9 km/h 5.6 km/h 80% 0.0 mm CLR
04:29 15.0 °C 11.2 °C 1008.1 hPa SSE 4.7 km/h 16.7 km/h 78% 0.0 mm CLR
04:34 14.6 °C 11.4 °C 1008.4 hPa South 4.7 km/h 10.3 km/h 81% 0.0 mm CLR
04:39 14.6 °C 11.6 °C 1008.4 hPa SW 9.5 km/h 11.1 km/h 82% 0.0 mm CLR
04:44 14.7 °C 11.7 °C 1008.4 hPa SW 9.5 km/h 7.4 km/h 82% 0.0 mm CLR
04:49 14.9 °C 11.7 °C 1008.1 hPa SSW 6.4 km/h 6.4 km/h 81% 0.0 mm CLR
04:54 15.1 °C 11.7 °C 1008.1 hPa SSW 6.4 km/h 9.3 km/h 80% 0.0 mm CLR
04:59 15.2 °C 11.6 °C 1008.1 hPa South 6.9 km/h 11.1 km/h 79% 0.0 mm CLR
05:04 15.2 °C 11.4 °C 1008.2 hPa South 6.9 km/h 8.4 km/h 78% 0.0 mm CLR
05:09 15.3 °C 11.3 °C 1008.2 hPa SSW 7.6 km/h 9.3 km/h 77% 0.0 mm CLR
05:14 15.3 °C 11.3 °C 1008.2 hPa SSE 7.6 km/h 7.6 km/h 77% 0.0 mm CLR
05:19 15.2 °C 11.2 °C 1008.2 hPa SSE 6.4 km/h 9.3 km/h 77% 0.0 mm CLR
05:24 15.1 °C 10.7 °C 1008.2 hPa South 6.4 km/h 9.3 km/h 75% 0.0 mm CLR
05:29 15.0 °C 10.4 °C 1008.2 hPa South 5.8 km/h 9.3 km/h 74% 0.0 mm CLR
05:34 15.0 °C 10.0 °C 1008.2 hPa SSE 5.8 km/h 9.3 km/h 72% 0.0 mm CLR
05:39 15.0 °C 10.0 °C 1008.2 hPa South 7.6 km/h 13.0 km/h 72% 0.0 mm CLR
05:44 15.0 °C 9.8 °C 1008.2 hPa SSW 7.6 km/h 13.0 km/h 71% 0.0 mm CLR
05:49 15.1 °C 9.7 °C 1008.3 hPa SW 10.0 km/h 13.0 km/h 70% 0.0 mm CLR
05:54 15.2 °C 9.6 °C 1008.3 hPa SW 10.0 km/h 13.0 km/h 69% 0.0 mm CLR
05:59 15.3 °C 9.4 °C 1008.3 hPa West 8.7 km/h 11.1 km/h 68% 0.0 mm CLR
06:04 15.3 °C 9.4 °C 1008.1 hPa WSW 8.7 km/h 9.3 km/h 68% 0.0 mm CLR
06:09 15.2 °C 9.1 °C 1008.1 hPa SW 6.9 km/h 9.3 km/h 67% 0.0 mm CLR
06:14 15.2 °C 8.9 °C 1008.1 hPa SW 6.9 km/h 11.1 km/h 66% 0.0 mm CLR
06:19 15.2 °C 9.1 °C 1008.4 hPa SW 6.4 km/h 7.4 km/h 67% 0.0 mm CLR
06:24 15.3 °C 9.2 °C 1008.4 hPa SSW 6.4 km/h 7.4 km/h 67% 0.0 mm CLR
06:29 15.3 °C 9.2 °C 1008.4 hPa SSW 3.2 km/h   67% 0.0 mm CLR
06:34 15.3 °C 9.4 °C 1008.2 hPa WNW 3.2 km/h 7.4 km/h 68% 0.0 mm CLR
06:39 15.3 °C 9.4 °C 1008.2 hPa WNW 2.9 km/h 5.6 km/h 68% 0.0 mm CLR
06:44 15.3 °C 9.4 °C 1008.2 hPa West 2.9 km/h 7.4 km/h 68% 0.0 mm CLR
06:49 15.2 °C 9.3 °C 1008.3 hPa WSW 3.9 km/h 7.4 km/h 68% 0.0 mm CLR
06:54 15.2 °C 9.3 °C 1008.3 hPa WSW 3.9 km/h 7.4 km/h 68% 0.0 mm CLR
06:59 15.2 °C 9.3 °C 1008.3 hPa WSW 4.7 km/h 7.4 km/h 68% 0.0 mm CLR
07:04 15.2 °C 9.1 °C 1008.4 hPa WSW 4.7 km/h 3.7 km/h 67% 0.0 mm CLR
07:09 15.2 °C 9.1 °C 1008.4 hPa WSW 2.3 km/h   67% 0.0 mm CLR
07:14 15.2 °C 9.6 °C 1008.4 hPa SSW 2.3 km/h 5.6 km/h 69% 0.0 mm CLR
07:19 15.2 °C 9.6 °C 1008.5 hPa SSW 2.9 km/h   69% 0.0 mm CLR
07:24 15.2 °C 8.9 °C 1008.5 hPa WNW 2.9 km/h 7.4 km/h 66% 0.0 mm CLR
07:29 15.2 °C 8.7 °C 1008.5 hPa WNW 3.2 km/h   65% 0.0 mm CLR
07:34 15.2 °C 9.6 °C 1008.7 hPa East 3.2 km/h 7.4 km/h 69% 0.0 mm CLR
07:39 15.2 °C 9.8 °C 1008.7 hPa East 2.9 km/h 3.9 km/h 70% 0.0 mm CLR
07:44 15.1 °C 9.2 °C 1008.7 hPa East 2.9 km/h   68% 0.0 mm CLR
07:49 15.2 °C 8.9 °C 1008.8 hPa Calm   3.9 km/h 66% 0.0 mm CLR
07:54 15.2 °C 8.7 °C 1008.8 hPa Calm   5.6 km/h 65% 0.0 mm CLR
07:59 15.3 °C 8.3 °C 1008.8 hPa SW 3.9 km/h 5.8 km/h 63% 0.0 mm CLR
08:04 15.4 °C 8.8 °C 1008.9 hPa SW 3.9 km/h 7.4 km/h 65% 0.0 mm CLR
08:09 15.6 °C 9.5 °C 1008.9 hPa SW 4.7 km/h 7.4 km/h 67% 0.0 mm CLR
08:14 15.6 °C 9.5 °C 1008.9 hPa SW 4.7 km/h 7.4 km/h 67% 0.0 mm CLR
08:19 15.7 °C 9.6 °C 1009.0 hPa SW 3.2 km/h 5.6 km/h 67% 0.0 mm CLR
08:24 15.8 °C 9.2 °C 1009.0 hPa SE 3.2 km/h 8.7 km/h 65% 0.0 mm CLR
08:29 15.9 °C 8.4 °C 1009.0 hPa SSW 5.8 km/h 9.3 km/h 61% 0.0 mm CLR
08:34 16.1 °C 7.1 °C 1009.0 hPa SW 5.8 km/h 11.1 km/h 55% 0.0 mm CLR
08:39 16.3 °C 5.8 °C 1009.0 hPa SSW 7.6 km/h 13.0 km/h 50% 0.0 mm CLR
08:44 16.6 °C 5.8 °C 1009.0 hPa SSW 7.6 km/h 13.0 km/h 49% 0.0 mm CLR
08:49 16.7 °C 5.9 °C 1009.1 hPa WSW 7.6 km/h 11.1 km/h 49% 0.0 mm CLR
08:54 16.8 °C 6.0 °C 1009.1 hPa SW 7.6 km/h 9.3 km/h 49% 0.0 mm CLR
08:59 17.0 °C 5.3 °C 1009.1 hPa SSE 5.8 km/h 7.4 km/h 46% 0.0 mm CLR
09:04 17.1 °C 5.1 °C 1009.2 hPa West 5.8 km/h 10.3 km/h 45% 0.0 mm CLR
09:09 17.2 °C 4.8 °C 1009.2 hPa WSW 6.4 km/h 7.4 km/h 44% 0.0 mm CLR
09:14 17.4 °C 4.7 °C 1009.2 hPa SW 6.4 km/h 13.0 km/h 43% 0.0 mm CLR
09:19 17.6 °C 3.8 °C 1009.3 hPa WSW 7.6 km/h 18.5 km/h 40% 0.0 mm CLR
09:24 17.8 °C 4.0 °C 1009.3 hPa West 7.6 km/h 13.0 km/h 40% 0.0 mm CLR
09:29 18.0 °C 4.6 °C 1009.3 hPa SSW 8.7 km/h 11.1 km/h 41% 0.0 mm CLR
09:34 18.1 °C 5.9 °C 1009.4 hPa SSW 8.7 km/h 10.3 km/h 45% 0.0 mm CLR
09:39 18.0 °C 5.9 °C 1009.4 hPa South 6.9 km/h 7.4 km/h 45% 0.0 mm CLR
09:44 18.1 °C 5.0 °C 1009.4 hPa West 6.9 km/h 7.4 km/h 42% 0.0 mm CLR
09:49 18.3 °C 2.9 °C 1009.5 hPa WNW 5.0 km/h 14.8 km/h 36% 0.0 mm CLR
09:54 18.6 °C 3.2 °C 1009.5 hPa WNW 5.0 km/h 16.7 km/h 36% 0.0 mm CLR
09:59 18.7 °C 4.4 °C 1009.5 hPa SSE 7.6 km/h 11.1 km/h 39% 0.0 mm CLR
10:04 18.8 °C 4.6 °C 1009.4 hPa SE 7.6 km/h 10.0 km/h 39% 0.0 mm CLR
10:09 18.9 °C 3.9 °C 1009.4 hPa SE 8.4 km/h 11.1 km/h 37% 0.0 mm CLR
10:14 19.1 °C 4.8 °C 1009.4 hPa SSE 8.4 km/h 13.0 km/h 39% 0.0 mm CLR
10:19 19.2 °C 4.9 °C 1009.4 hPa ESE 6.9 km/h 9.3 km/h 39% 0.0 mm CLR
10:24 19.4 °C 4.7 °C 1009.4 hPa SW 6.9 km/h 11.1 km/h 38% 0.0 mm CLR
10:29 19.4 °C 4.7 °C 1009.4 hPa South 6.4 km/h 5.8 km/h 38% 0.0 mm CLR
10:34 19.8 °C 2.6 °C 1009.3 hPa WSW 6.4 km/h 20.4 km/h 32% 0.0 mm CLR
10:39 19.9 °C 2.7 °C 1009.3 hPa WSW 10.0 km/h 14.8 km/h 32% 0.0 mm CLR
10:44 20.3 °C 3.1 °C 1009.3 hPa WSW 10.0 km/h 10.0 km/h 32% 0.0 mm CLR
10:49 20.5 °C 3.2 °C 1009.3 hPa SSW 7.6 km/h 7.4 km/h 32% 0.0 mm CLR
10:54 20.7 °C 2.9 °C 1009.3 hPa SW 7.6 km/h 13.0 km/h 31% 0.0 mm CLR
10:59 20.8 °C 2.6 °C 1009.3 hPa SW 8.4 km/h 16.7 km/h 30% 0.0 mm CLR
11:04 20.7 °C 2.5 °C 1009.2 hPa WNW 8.4 km/h 14.8 km/h 30% 0.0 mm CLR
11:09 20.6 °C 2.4 °C 1009.2 hPa West 10.0 km/h 14.8 km/h 30% 0.0 mm CLR
11:14 20.8 °C 3.1 °C 1009.2 hPa WSW 10.0 km/h 14.8 km/h 31% 0.0 mm CLR
11:19 20.9 °C 2.7 °C 1009.1 hPa SW 8.4 km/h 13.0 km/h 30% 0.0 mm CLR
11:24 21.0 °C 2.3 °C 1009.1 hPa WSW 8.4 km/h 18.5 km/h 29% 0.0 mm CLR
11:29 21.2 °C 2.9 °C 1009.1 hPa West 8.4 km/h 9.5 km/h 30% 0.0 mm CLR
11:34 21.3 °C 3.0 °C 1009.1 hPa West 8.4 km/h 10.0 km/h 30% 0.0 mm CLR
11:39 21.5 °C 2.7 °C 1009.1 hPa WSW 6.9 km/h 9.3 km/h 29% 0.0 mm CLR
11:44 21.6 °C 2.3 °C 1009.1 hPa NW 6.9 km/h 16.7 km/h 28% 0.0 mm CLR
11:49 21.6 °C 2.3 °C 1009.0 hPa West 6.9 km/h 20.4 km/h 28% 0.0 mm CLR
11:54 21.7 °C 2.4 °C 1009.0 hPa SW 6.9 km/h 18.5 km/h 28% 0.0 mm CLR
11:59 21.8 °C 1.9 °C 1009.0 hPa South 8.4 km/h 9.3 km/h 27% 0.0 mm CLR
12:04 21.9 °C 2.1 °C 1008.8 hPa NW 8.4 km/h 11.1 km/h 27% 0.0 mm CLR
12:09 22.0 °C 2.1 °C 1008.8 hPa West 7.6 km/h 9.3 km/h 27% 0.0 mm CLR
12:14 22.2 °C 2.3 °C 1008.8 hPa West 7.6 km/h 20.4 km/h 27% 0.0 mm CLR
12:19 22.1 °C 1.7 °C 1008.8 hPa SW 9.5 km/h 16.7 km/h 26% 0.0 mm CLR
12:24 22.1 °C 1.7 °C 1008.8 hPa WNW 9.5 km/h 9.3 km/h 26% 0.0 mm CLR
12:29 22.3 °C 1.8 °C 1008.8 hPa West 8.7 km/h 23.7 km/h 26% 0.0 mm CLR
12:34 22.3 °C 1.3 °C 1008.7 hPa NNW 8.7 km/h 9.3 km/h 25% 0.0 mm CLR
12:39 22.4 °C 2.4 °C 1008.7 hPa NNW 10.0 km/h 9.5 km/h 27% 0.0 mm CLR
12:44 22.7 °C 2.2 °C 1008.7 hPa ENE 10.0 km/h 13.0 km/h 26% 0.0 mm CLR
12:49 22.8 °C 2.3 °C 1008.5 hPa NNE 6.9 km/h 8.4 km/h 26% 0.0 mm CLR
12:54 22.9 °C 1.8 °C 1008.5 hPa WNW 6.9 km/h 22.2 km/h 25% 0.0 mm CLR
12:59 22.8 °C 2.3 °C 1008.5 hPa North 9.5 km/h 8.4 km/h 26% 0.0 mm CLR
13:04 23.1 °C 2.6 °C 1008.4 hPa SSW 9.5 km/h 13.0 km/h 26% 0.0 mm CLR
13:09 23.0 °C 1.9 °C 1008.4 hPa SSE 6.9 km/h 9.3 km/h 25% 0.0 mm CLR
13:14 23.1 °C 2.6 °C 1008.4 hPa SSE 6.9 km/h 11.1 km/h 26% 0.0 mm CLR
13:19 23.4 °C 2.2 °C 1008.3 hPa SW 6.4 km/h 7.4 km/h 25% 0.0 mm CLR
13:24 23.7 °C 1.9 °C 1008.3 hPa South 6.4 km/h 16.7 km/h 24% 0.0 mm CLR
13:29 23.5 °C 1.2 °C 1008.3 hPa WNW 10.0 km/h 9.3 km/h 23% 0.0 mm CLR
13:34 23.3 °C 1.6 °C 1008.2 hPa West 10.0 km/h 13.0 km/h 24% 0.0 mm CLR
13:39 23.4 °C 1.1 °C 1008.2 hPa ESE 7.6 km/h 22.2 km/h 23% 0.0 mm CLR
13:44 23.6 °C 1.2 °C 1008.2 hPa WSW 7.6 km/h 22.5 km/h 23% 0.0 mm CLR
13:49 23.6 °C 1.2 °C 1008.2 hPa West 13.7 km/h 16.7 km/h 23% 0.0 mm CLR
13:54 23.7 °C 1.3 °C 1008.2 hPa SSE 13.7 km/h 9.5 km/h 23% 0.0 mm CLR
13:59 23.9 °C 1.5 °C 1008.2 hPa NNW 9.5 km/h 14.8 km/h 23% 0.0 mm CLR
14:04 24.1 °C 1.7 °C 1007.9 hPa WSW 9.5 km/h 11.1 km/h 23% 0.0 mm CLR
14:09 24.3 °C 1.8 °C 1007.9 hPa West 7.6 km/h 13.0 km/h 23% 0.0 mm CLR
14:14 24.3 °C 1.8 °C 1007.9 hPa West 7.6 km/h 11.1 km/h 23% 0.0 mm CLR
14:19 24.3 °C 1.2 °C 1007.9 hPa WSW 10.3 km/h 29.6 km/h 22% 0.0 mm CLR
14:24 24.1 °C 0.4 °C 1007.9 hPa SW 10.3 km/h 27.8 km/h 21% 0.0 mm CLR
14:29 24.2 °C 0.5 °C 1007.9 hPa West 16.1 km/h 29.6 km/h 21% 0.0 mm CLR
14:34 24.5 °C 0.7 °C 1007.7 hPa WSW 16.1 km/h 9.3 km/h 21% 0.0 mm CLR
14:39 24.8 °C 1.0 °C 1007.7 hPa West 10.0 km/h 20.1 km/h 21% 0.0 mm CLR
14:44 24.7 °C 0.9 °C 1007.7 hPa NNW 10.0 km/h 7.4 km/h 21% 0.0 mm CLR
14:49 24.7 °C 0.9 °C 1007.7 hPa NW 9.5 km/h 20.4 km/h 21% 0.0 mm CLR
14:54 24.6 °C 0.8 °C 1007.7 hPa NNW 9.5 km/h 16.7 km/h 21% 0.0 mm CLR
14:59 24.3 °C 0.6 °C 1007.7 hPa NE 12.2 km/h 13.0 km/h 21% 0.0 mm CLR
15:04 24.4 °C 0.7 °C 1007.5 hPa NNE 12.2 km/h 16.7 km/h 21% 0.0 mm CLR
15:09 24.8 °C 1.0 °C 1007.5 hPa North 9.5 km/h 13.0 km/h 21% 0.0 mm CLR
15:14 24.9 °C 0.4 °C 1007.5 hPa WNW 9.5 km/h 26.2 km/h 20% 0.0 mm CLR
15:19 25.1 °C 0.6 °C 1007.4 hPa WSW 13.7 km/h 18.5 km/h 20% 0.0 mm CLR
15:24 25.1 °C -0.2 °C 1007.4 hPa NW 13.7 km/h 18.5 km/h 19% 0.0 mm CLR
15:29 25.0 °C 0.4 °C 1007.4 hPa WSW 11.1 km/h 11.1 km/h 20% 0.0 mm CLR
15:34 24.9 °C 0.4 °C 1007.4 hPa WNW 11.1 km/h 20.4 km/h 20% 0.0 mm CLR
15:39 24.7 °C 0.2 °C 1007.4 hPa West 11.1 km/h 14.8 km/h 20% 0.0 mm CLR
15:44 24.6 °C 0.1 °C 1007.4 hPa NNW 11.1 km/h 16.1 km/h 20% 0.0 mm CLR
15:49 24.7 °C 0.9 °C 1007.2 hPa NW 8.7 km/h 18.5 km/h 21% 0.0 mm CLR
15:54 24.8 °C 1.0 °C 1007.2 hPa WNW 8.7 km/h 20.4 km/h 21% 0.0 mm CLR
15:59 24.9 °C 1.1 °C 1007.2 hPa North 9.5 km/h 7.4 km/h 21% 0.0 mm CLR
16:04 24.8 °C 4.5 °C 1007.3 hPa East 9.5 km/h 14.8 km/h 27% 0.0 mm CLR
16:09 24.3 °C 5.6 °C 1007.3 hPa SE 6.9 km/h 14.8 km/h 30% 0.0 mm CLR
16:14 23.9 °C 4.8 °C 1007.3 hPa SSE 6.9 km/h 14.8 km/h 29% 0.0 mm CLR
16:19 23.9 °C 4.8 °C 1007.1 hPa SW 10.0 km/h 11.1 km/h 29% 0.0 mm CLR
16:24 24.1 °C 4.9 °C 1007.1 hPa ESE 10.0 km/h 14.8 km/h 29% 0.0 mm CLR
16:29 24.2 °C 4.6 °C 1007.1 hPa SW 7.6 km/h 11.1 km/h 28% 0.0 mm CLR
16:34 24.5 °C 4.3 °C 1007.0 hPa South 7.6 km/h 16.7 km/h 27% 0.0 mm CLR
16:39 24.6 °C 4.3 °C 1007.0 hPa East 8.7 km/h 13.0 km/h 27% 0.0 mm CLR
16:44 24.5 °C 6.3 °C 1007.0 hPa ESE 8.7 km/h 13.0 km/h 31% 0.0 mm CLR
16:49 24.6 °C 6.3 °C 1007.0 hPa NE 8.4 km/h 13.0 km/h 31% 0.0 mm CLR
16:54 24.7 °C 5.9 °C 1007.0 hPa SE 8.4 km/h 18.5 km/h 30% 0.0 mm CLR
16:59 24.4 °C 5.2 °C 1007.0 hPa SW 10.0 km/h 13.0 km/h 29% 0.0 mm CLR
17:04 24.6 °C 5.4 °C 1006.9 hPa SSW 10.0 km/h 15.6 km/h 29% 0.0 mm CLR
17:09 24.5 °C 5.3 °C 1006.9 hPa West 8.7 km/h 11.1 km/h 29% 0.0 mm CLR
17:14 24.6 °C 5.4 °C 1006.9 hPa SSW 8.7 km/h 13.0 km/h 29% 0.0 mm CLR
17:19 24.7 °C 5.4 °C 1006.8 hPa SSW 9.5 km/h 19.0 km/h 29% 0.0 mm CLR
17:24 24.6 °C 5.4 °C 1006.8 hPa West 9.5 km/h 14.8 km/h 29% 0.0 mm CLR
17:29 24.4 °C 5.7 °C 1006.8 hPa SE 11.1 km/h 18.5 km/h 30% 0.0 mm CLR
17:34 24.3 °C 6.1 °C 1006.9 hPa SSE 11.1 km/h 18.5 km/h 31% 0.0 mm CLR
17:39 24.2 °C 6.0 °C 1006.9 hPa SE 11.9 km/h 15.6 km/h 31% 0.0 mm CLR
17:44 24.1 °C 6.8 °C 1006.9 hPa ESE 11.9 km/h 22.2 km/h 33% 0.0 mm CLR
17:49 23.7 °C 7.3 °C 1007.0 hPa ESE 14.0 km/h 24.1 km/h 35% 0.0 mm CLR
17:54 23.4 °C 7.9 °C 1007.0 hPa ESE 14.0 km/h 33.3 km/h 37% 0.0 mm CLR
17:59 23.2 °C 8.5 °C 1007.0 hPa ESE 18.3 km/h 28.6 km/h 39% 0.0 mm CLR
18:04 22.9 °C 8.6 °C 1007.0 hPa ESE 18.3 km/h 35.2 km/h 40% 0.0 mm CLR
18:09 22.7 °C 8.8 °C 1007.0 hPa ESE 20.1 km/h 25.9 km/h 41% 0.0 mm CLR
18:14 22.8 °C 8.8 °C 1007.0 hPa SE 20.1 km/h 21.7 km/h 41% 0.0 mm CLR
18:19 22.7 °C 9.1 °C 1007.3 hPa SE 14.8 km/h 25.9 km/h 42% 0.0 mm CLR
18:24 22.6 °C 9.1 °C 1007.3 hPa ESE 14.8 km/h 24.1 km/h 42% 0.0 mm CLR
18:29 22.6 °C 9.7 °C 1007.3 hPa SW 19.0 km/h 27.8 km/h 44% 0.0 mm CLR
18:34 22.7 °C 10.2 °C 1007.4 hPa SE 19.0 km/h 20.9 km/h 45% 0.0 mm CLR
18:39 22.6 °C 10.1 °C 1007.4 hPa ESE 18.0 km/h 25.9 km/h 45% 0.0 mm CLR
18:44 22.5 °C 10.3 °C 1007.4 hPa ESE 18.0 km/h 27.0 km/h 46% 0.0 mm CLR
18:49 22.6 °C 10.1 °C 1007.3 hPa SE 19.8 km/h 24.1 km/h 45% 0.0 mm CLR
18:54 22.8 °C 10.2 °C 1007.3 hPa SE 19.8 km/h 27.0 km/h 45% 0.0 mm CLR
18:59 22.8 °C 10.2 °C 1007.3 hPa SSE 16.4 km/h 25.9 km/h 45% 0.0 mm CLR
19:04 22.7 °C 9.8 °C 1007.2 hPa SE 16.4 km/h 25.9 km/h 44% 0.0 mm CLR
19:09 22.8 °C 9.2 °C 1007.2 hPa SSE 16.1 km/h 20.4 km/h 42% 0.0 mm CLR
19:14 23.1 °C 8.8 °C 1007.2 hPa SSE 16.1 km/h 20.4 km/h 40% 0.0 mm CLR
19:19 23.1 °C 8.4 °C 1007.4 hPa ESE 13.0 km/h 24.1 km/h 39% 0.0 mm CLR
19:24 23.2 °C 7.7 °C 1007.4 hPa ESE 13.0 km/h 27.8 km/h 37% 0.0 mm CLR
19:29 23.1 °C 7.2 °C 1007.4 hPa SE 14.0 km/h 25.9 km/h 36% 0.0 mm CLR
19:34 23.1 °C 6.8 °C 1007.6 hPa South 14.0 km/h 27.8 km/h 35% 0.0 mm CLR
19:39 23.0 °C 6.7 °C 1007.6 hPa South 15.6 km/h 20.4 km/h 35% 0.0 mm CLR
19:44 23.1 °C 6.8 °C 1007.6 hPa SSE 15.6 km/h 23.3 km/h 35% 0.0 mm CLR
19:49 23.1 °C 6.8 °C 1007.6 hPa SSE 11.9 km/h 14.8 km/h 35% 0.0 mm CLR
19:54 23.1 °C 6.8 °C 1007.6 hPa SSE 11.9 km/h 14.8 km/h 35% 0.0 mm CLR
19:59 22.9 °C 7.1 °C 1007.6 hPa SSE 11.9 km/h 18.5 km/h 36% 0.0 mm CLR
20:04 22.9 °C 7.1 °C 1007.8 hPa SE 11.9 km/h 18.5 km/h 36% 0.0 mm CLR
20:09 22.8 °C 6.6 °C 1007.8 hPa SSE 12.2 km/h 16.7 km/h 35% 0.0 mm CLR
20:14 22.6 °C 6.3 °C 1007.8 hPa SSE 12.2 km/h 20.4 km/h 35% 0.0 mm CLR
20:19 22.4 °C 6.2 °C 1007.9 hPa SE 12.2 km/h 24.1 km/h 35% 0.0 mm CLR
20:24 22.3 °C 6.1 °C 1007.9 hPa ESE 12.2 km/h 13.0 km/h 35% 0.0 mm CLR
20:29 22.2 °C 5.6 °C 1007.9 hPa SSE 13.0 km/h 20.4 km/h 34% 0.0 mm CLR
20:34 22.2 °C 5.6 °C 1008.2 hPa ESE 13.0 km/h 13.0 km/h 34% 0.0 mm CLR
20:39 22.1 °C 5.5 °C 1008.2 hPa ESE 10.3 km/h 14.8 km/h 34% 0.0 mm CLR
20:44 22.0 °C 5.4 °C 1008.2 hPa SE 10.3 km/h 14.8 km/h 34% 0.0 mm CLR
20:49 21.8 °C 5.2 °C 1008.3 hPa SSE 11.1 km/h 14.8 km/h 34% 0.0 mm CLR
20:54 21.6 °C 5.1 °C 1008.3 hPa SSE 11.1 km/h 14.8 km/h 34% 0.0 mm CLR
20:59 21.6 °C 5.1 °C 1008.3 hPa South 11.1 km/h 16.7 km/h 34% 0.0 mm CLR
21:04 21.5 °C 4.9 °C 1008.4 hPa ESE 11.1 km/h 16.7 km/h 34% 0.0 mm CLR
21:09 21.4 °C 4.9 °C 1008.4 hPa ESE 8.7 km/h 11.1 km/h 34% 0.0 mm CLR
21:14 21.3 °C 4.8 °C 1008.4 hPa SE 8.7 km/h 7.4 km/h 34% 0.0 mm CLR
21:19 21.1 °C 5.1 °C 1008.6 hPa ESE 6.9 km/h 9.3 km/h 35% 0.0 mm CLR
21:24 21.0 °C 4.9 °C 1008.6 hPa SE 6.9 km/h 7.4 km/h 35% 0.0 mm CLR
21:29 20.9 °C 4.8 °C 1008.6 hPa ESE 6.4 km/h 7.4 km/h 35% 0.0 mm CLR
21:34 20.9 °C 4.8 °C 1008.6 hPa SE 6.4 km/h 7.4 km/h 35% 0.0 mm CLR
21:39 20.8 °C 4.8 °C 1008.6 hPa ESE 5.0 km/h 7.4 km/h 35% 0.0 mm CLR
21:44 20.8 °C 4.3 °C 1008.6 hPa SE 5.0 km/h 11.1 km/h 34% 0.0 mm CLR
21:49 20.8 °C 4.3 °C 1008.9 hPa SE 6.4 km/h 9.3 km/h 34% 0.0 mm CLR
21:54 20.7 °C 4.3 °C 1008.9 hPa SE 6.4 km/h 7.4 km/h 34% 0.0 mm CLR
21:59 20.6 °C 4.2 °C 1008.9 hPa SE 6.4 km/h 9.3 km/h 34% 0.0 mm CLR
22:04 20.4 °C 4.0 °C 1009.1 hPa SE 6.4 km/h 9.3 km/h 34% 0.0 mm CLR
22:09 20.3 °C 3.9 °C 1009.1 hPa SE 6.4 km/h 7.4 km/h 34% 0.0 mm CLR
22:14 20.3 °C 3.5 °C 1009.1 hPa SE 6.4 km/h 7.4 km/h 33% 0.0 mm CLR
22:19 20.4 °C 3.6 °C 1009.3 hPa SE 4.7 km/h 5.8 km/h 33% 0.0 mm CLR
22:24 20.4 °C 3.2 °C 1009.3 hPa SSE 4.7 km/h 5.8 km/h 32% 0.0 mm CLR
22:29 20.4 °C 3.2 °C 1009.3 hPa SSE 4.7 km/h 7.4 km/h 32% 0.0 mm CLR
22:34 20.5 °C 3.2 °C 1009.5 hPa SSE 4.7 km/h   32% 0.0 mm CLR
22:39 20.5 °C 2.8 °C 1009.5 hPa SSE 2.9 km/h 5.6 km/h 31% 0.0 mm CLR
22:44 20.6 °C 2.4 °C 1009.5 hPa South 2.9 km/h 13.0 km/h 30% 0.0 mm CLR
22:49 20.6 °C 2.4 °C 1009.7 hPa South 5.8 km/h 7.4 km/h 30% 0.0 mm CLR
22:54 20.6 °C 2.4 °C 1009.7 hPa SSE 5.8 km/h 6.4 km/h 30% 0.0 mm CLR
22:59 20.6 °C 2.4 °C 1009.7 hPa SSE 3.9 km/h 3.7 km/h 30% 0.0 mm CLR
23:04 20.6 °C 2.9 °C 1009.9 hPa SSE 3.9 km/h   31% 0.0 mm CLR
23:09 20.5 °C 2.8 °C 1009.9 hPa Calm     31% 0.0 mm CLR
23:14 20.4 °C 3.2 °C 1009.9 hPa Calm   3.7 km/h 32% 0.0 mm CLR
23:19 20.1 °C 3.3 °C 1010.1 hPa NNW 2.9 km/h 7.4 km/h 33% 0.0 mm CLR
23:24 19.8 °C 3.9 °C 1010.1 hPa NNW 2.9 km/h 5.6 km/h 35% 0.0 mm CLR
23:29 19.5 °C 4.0 °C 1010.1 hPa NNE 3.9 km/h 7.4 km/h 36% 0.0 mm CLR
23:34 19.4 °C 4.3 °C 1010.2 hPa North 3.9 km/h 5.8 km/h 37% 0.0 mm CLR
23:39 19.2 °C 4.5 °C 1010.2 hPa NNE 3.9 km/h 9.3 km/h 38% 0.0 mm CLR
23:44 19.0 °C 4.3 °C 1010.2 hPa North 3.9 km/h 5.6 km/h 38% 0.0 mm CLR
23:49 18.9 °C 4.3 °C 1010.2 hPa NNW 4.7 km/h 7.4 km/h 38% 0.0 mm CLR
23:54 18.9 °C 4.3 °C 1010.2 hPa NNW 4.7 km/h 5.8 km/h 38% 0.0 mm CLR
23:59 18.9 °C 4.3 °C 1010.2 hPa NNW 3.2 km/h 5.0 km/h 38% 0.0 mm CLR
Murcia-Puente Tocinos, España
Compliments of Weather Underground - 2.75 mb

La estación de MeteoMurcia.com, publica sus datos en los siguientes proyectos:

Weather Underground PWS IMURCIAP2 Meteoclimatic www.awekas.at

W3Counter
Web Analytics